www.pogodaiklimat.ru

Погода и климат >> Архив погоды >> Россия >> Краснодарский край >> Туапсе


АРХИВ ПОГОДЫ в Туапсе

Время (UTC), дата Ветер
(напр.,м/с)
 
Видим.   Явления Облачность Т
(С)
Тd
(С)
f
(%)
Тe
(С)
Тes
(С)
Комфортность P
(гПа)
Po
(гПа)
Тmin
(С)
Tmax
(С)
R
(мм)
R24
(мм)
S
(см)
18 13.07 СЗ 1 10 км 6/3 1000 м
[Cu Sc Ci sp]
+19.4 +12.3 63 +22 +22 комфорт 1011.9 1004.7
21 13.07 СВ 1 10 км 6/3 1000 м
[Sc Ci sp]
+16.9 +12.8 77 +18 +18 прохладно 1011.6 1004.4
00 14.07 СВ 2 10 км 3/0
[Ci sp]
+16.0 +12.6 80 +16 +16 холодно 1010.9 1003.7
03 14.07 СВ 2 20 км 3/0
[Ci]
+16.6 +12.6 77 +17 +17 холодно 1010.6 1003.4 +15.7
06 14.07 В 2 20 км ясно +23.3 +12.5 51 +26 +36 жарко 1010.3 1003.2
09 14.07 ЮЗ 2 20 км 1/1 1000 м
[Cu med, cong]
+26.1 +14.2 48 +28 +45 жарко 1009.5 1002.5
12 14.07 ЮЗ 2 20 км 8/1 1000 м
[Cu med, cong Ci fib]
+26.8 +13.7 44 +29 +39 жарко 1008.7 1001.7
15 14.07 СЗ 1 20 км 10/4 1000 м
[Cb cap Ac trans Ci fib]
+23.0 +13.5 55 +26 +27 жарко 1008.0 1000.9 +27.0
18 14.07 СВ 2 10 км 10/6 1000 м
[Cb cap Ac trans Ci fib]
+21.3 +13.5 61 +24 +24 комфорт 1007.1 1000.0
21 14.07 З 1 10 км 8/3 1000 м
[Sc Ci fib]
+21.1 +11.3 54 +23 +23 комфорт 1005.3 998.2
00 15.07 СВ 3 10 км 6/1 1000 м
[Sc Ci fib]
+22.0 +10.6 48 +24 +24 комфорт 1003.3 996.2
03 15.07 СВ 3 20 км 6/0
[Ci fib]
+21.3 +10.6 50 +23 +23 комфорт 1001.8 994.7 +20.5
06 15.07 СВ 1 20 км 10/8 1000 м
[Cb cap Ac As]
+23.5 +10.3 43 +25 +25 комфорт 1002.4 995.4
09 15.07 С 1 10 км слаб. ливневой дождь 10/10 600 м
[Cb cap]
+20.1 +16.9 82 +24 +24 комфорт 1003.1 996.0
12 15.07 СВ 3 10 км слаб. ливневой дождь 10/10 600 м
[Cb cap]
+18.7 +15.7 83 +20 +20 очень
холодно
1004.1 997.0
15 15.07 В 1 20 км {ливн. осадки} 9/6 1000 м
[Cu Sc Ac trans Ci sp]
+21.6 +15.2 67 +25 +26 комфорт 1004.2 997.1 +23.6 7
18 15.07 ЮЗ 2 10 км {ливн. осадки} 8/5 600 м
[Cb cap Ac trans Ci sp]
+20.1 +17.1 83 +24 +24 комфорт 1005.8 998.7
21 15.07 ЮЗ 3 10 км 10/8 600 м
[Cb cap Ac trans Ci sp]
+20.5 +17.1 81 +24 +24 комфорт 1005.8 998.7
00 16.07 ЮВ 1 10 км 10/8 600 м
[Cb cap Ac trans Ci sp]
+20.2 +16.0 77 +24 +24 комфорт 1005.4 998.3
03 16.07 ЮЗ 4 20 км 10/8 1000 м
[Cb cap Ac trans Ci sp]
+21.1 +16.5 75 +25 +25 комфорт 1005.6 998.5 +20.0 0.0
06 16.07 ЮЗ 2
{11}
20 км гроза без осадков {ливн. осадки} 10/8 1000 м
[Cb cap Ci]
+19.5 +17.9 90 +22 +24 комфорт 1006.3 999.2 +18.3
09 16.07 ЮЗ 3 20 км {гроза} 9/8 1000 м
[Cb cap Ci]
+23.7 +17.6 69 +28 +31 душно 1007.7 1000.7
12 16.07 ЮЗ 3 20 км {гроза} 6/6 1000 м
[Cu Sc]
+24.8 +17.4 63 +29 +33 душно 1009.0 1002.0
15 16.07 ЮЗ 1 20 км 4/4 1000 м
[Cu Sc]
+23.7 +16.3 63 +27 +29 жарко 1009.8 1002.8 +25.9 6
18 16.07 С 2 10 км 3/3 1000 м
[Sc]
+20.4 +15.8 75 +24 +24 комфорт 1010.9 1003.8
21 16.07 С 2 10 км ясно +18.1 +15.4 84 +19 +19 прохладно 1010.5 1003.3
00 17.07 СВ 2 10 км ясно +17.0 +14.0 82 +17 +17 прохладно 1009.7 1002.5
03 17.07 СВ 3 20 км 6/0
[Ci]
+17.2 +13.3 78 +17 +18 холодно 1009.1 1001.9 +16.4
06 17.07 ЮВ 1 20 км 3/0
[Ci fib]
+24.7 +14.9 54 +27 +38 жарко 1007.9 1000.9
09 17.07 З 2 20 км 3/0
[Ac trans]
+28.1 +18.3 55 +33 +48 очень
душно
1006.5 999.6
12 17.07 З 2 20 км 3/0
[Ac cast]
+29.3 +18.5 52 +34 +45 очень
душно
1005.6 998.7
15 17.07 С 3 20 км ясно +28.2 +12.4 38 +30 +31 жарко 1004.8 997.9 +29.9
18 17.07 СВ 3 10 км 4/0
[Ci fib]
+26.4 +11.7 40 +28 +28 жарко 1004.6 997.6
21 17.07 Ю 1 10 км 6/0
[Ci fib]
+22.7 +19.2 81 +29 +29 очень
душно
1005.3 998.3
00 18.07 С 1 10 км 10/0
[Ac trans Ci fib]
+21.0 +17.0 78 +26 +26 душно 1005.4 998.3
03 18.07 СВ 2 20 км в посл. час ливневой дождь 10/6 1000 м
[Cb cap Ac trans Ci fib]
+21.9 +14.0 61 +25 +25 комфорт 1005.0 997.9 +20.7 0.0
06 18.07 В 2 20 км {ливн. осадки} 10/8 1000 м
[Cb cap Ac trans Ci sp]
+23.1 +15.3 61 +27 +28 душно 1005.7 998.7 +20.4
09 18.07 СВ 2 20 км {ливн. осадки} 10/8 1000 м
[Cb cap Ac As]
+23.0 +17.1 69 +28 +29 душно 1007.0 1000.0
12 18.07 ЮЗ 3 20 км {ливн. осадки} 10/5 1000 м
[Cu Sc Ci sp]
+26.5 +19.4 65 +32 +36 очень
душно
1006.8 999.8
15 18.07 З 2 20 км 9/4 600 м
[Cu Sc Ac cast Ci sp]
+25.5 +19.7 70 +31 +32 очень
душно
1007.6 1000.6 +28.6 0.6
18 18.07 СВ 2 10 км 9/5 600 м
[Cu Sc Ac trans Ci sp]
+23.4 +16.7 66 +28 +28 душно 1008.9 1001.9
21 18.07 СВ 2 н/о н/о +22.9 +16.9 69 +28 +28 душно 1010.3 1003.2
00 19.07 СВ 1 10 км 10/4 1000 м
[Cb cap Ac trans Ci sp]
+22.6 +17.1 71 +27 +27 душно 1010.9 1003.8
03 19.07 СВ 1 20 км 10/8 1000 м
[Cb cap Ac trans Ci sp]
+22.5 +17.2 72 +27 +27 душно 1011.9 1004.8 +21.9
06 19.07 СВ 3 20 км 10/8 1000 м
[Cb cap Ac cast Ci sp]
+25.2 +16.0 57 +29 +29 душно 1012.0 1005.0
09 19.07 В 3 20 км 9/5 1000 м
[Cu Sc Ac cast Ci fib]
+28.7 +16.8 49 +32 +37 душно 1012.4 1005.4
12 19.07 Ю 2 20 км 10/8 1000 м
[Cb cap Ci sp]
+26.2 +18.8 64 +31 +33 очень
душно
1013.3 1006.3
15 19.07 СВ 1 20 км 10/4 1000 м
[Cu Sc Ci]
+27.2 +17.5 55 +31 +32 душно 1014.2 1007.2 +29.1
18 19.07 С 1 10 км 3/0
[Ci sp]
+23.6 +16.0 62 +27 +27 жарко 1015.5 1008.4
21 19.07 С 2 10 км 3/0
[Ci sp]
+22.2 +13.3 57 +25 +25 комфорт 1015.9 1008.8
00 20.07 С 1 10 км ясно +21.5 +11.7 54 +24 +24 комфорт 1015.9 1008.7
03 20.07 В 1 20 км ясно +22.3 +12.1 52 +25 +26 комфорт 1016.4 1009.3 +21.1
06 20.07 СВ 2 20 км ясно +27.5 +13.4 42 +29 +39 жарко 1015.9 1008.9
09 20.07 Ю 2 20 км 1/1 1000 м
[Cu med, cong]
+27.7 +17.3 53 +32 +48 очень
душно
1015.8 1008.8
12 20.07 ЮЗ 1 20 км 1/1 1000 м
[Cu med, cong]
+28.5 +18.1 53 +33 +47 очень
душно
1015.4 1008.4
15 20.07 ЮВ 2 20 км 1/1 1000 м
[Cu med, cong]
+25.8 +17.6 61 +30 +32 душно 1014.3 1007.3 +29.4

 

Местоположение метеостанции Туапсе (Краснодарский край, Россия): широта 44.10 долгота 39.07 высота над уровнем моря 62 м.

В архиве по умолчанию представлена погода в Туапсе за последнюю неделю. Архивные данные за месяц целиком и за предыдущие месяцы, начиная с января 2011 года, Вы можете получить, выбрав интересующий диапазон дат из раскрывающегося списка и нажав кнопку "Ввод!".


*Определитесь, кто Вы:
робот инопланетянин человек

Внимание! Время в таблицах - всемирное. Для получения местного времени необходимо прибавить поправку, которая равна 3 ч.

Смотрите также архив погоды в соседних городах и на ближайших метеорологических станциях:

Погода в Магри (Краснодарский край, Россия) (11 км)
Погода в Горном (Краснодарский край, Россия) (26 км)
Погода в Лазаревском (Краснодарский край, Россия) (30 км)
Погода в Джубге (Краснодарский край, Россия) (38 км)
Погода в Кичмае (Краснодарский край, Россия) (46 км)
Погода в Солох Ауле (Краснодарский край, Россия) (56 км)
Погода в Горячем Ключе (Краснодарский край, Россия) (59 км)
Погода в Сочи (Краснодарский край, Россия) (81 км)
Погода в Гузерипле (Адыгея, Россия) (85 км)
Погода в Шунтуке (Адыгея, Россия) (93 км)

Пояснения к столбцам:

Ветер - указаны скорость ветра в м/с - средняя за 10 мин, порывы в срок и между сроками (в фигурных скобках) и направление, откуда дует ветер: С - северный, СВ - северо-восточный, В - восточный, ЮВ - юго-восточный, Ю - южный, ЮЗ - юго-западный, З - западный, СЗ - северо-западный.
Видимость - горизонтальная дальность видимости в метрах или километрах. При видимости от 1 до 10 км при отсутствии осадков обычно наблюдается дымка, при ухудшении видимости до 1 км и менее - туман. В сухую погоду видимость может ухудшаться дымом, пылью или мглою.
Явления - указаны атмосферные явления, наблюдавшиеся в срок или в последний час перед сроком; фигурными скобками обозначены явления, наблюдавшиеся между сроками (за 1-3 часа до срока); квадратными скобками обозначены град или гололедные отложения с указанием их диаметра в мм.
Облачность - указаны через наклонную черту общая и нижняя облачность в баллах и высота нижней границы облаков в метрах; квадратными скобками обозначены формы облаков: Ci - перистые, Cs - перисто-слоистые, Cc - перисто-кучевые, Ac - высококучевые, As - высокослоистые, Sc - слоисто-кучевые, Ns - слоисто-дождевые, Cu - кучевые, Cb - кучево-дождевые. Подробнее классификацию облаков см. в Атласе облаков (PDF).
T - Температура воздуха - температура, измеренная на высоте 2 м над землей.
Td - Температура точки росы - температура, при понижении до которой содержащийся в воздухе водяной пар достигнет насыщения.
f - Относительная влажность воздуха - влажноcть воздуха, измеренная на высоте 2 м над землей.
Te - Эффективная температура - температура, которую ощущает одетый по сезону человек в тени. Характеристика душности погоды. При расчете учитывается влияние влажности воздуха и скорости ветра на теплоощущения человека.
Tes - Эффективная температура на солнце - температура, которую ощущает человек, с поправкой на солнечный нагрев. Характеристика знойности погоды. Зависит от высоты солнца над горизонтом, облачности и скорости ветра. Ночью, в пасмурную погоду, а также при ветре 12 м/с и более поправка равна нулю.
P - Атмосферное давление - приведенное к уровню моря атмосферное давление.
Po - Атмосферное давление - измеренное на уровне метеостанции атмосферное давление.
Tmin - Минимальная температура - минимум температуры воздуха на высоте 2 м над землей.
Tmax - Максимальная температура - максимум температуры воздуха на высоте 2 м над землей.
R - Количество осадков - Количество выпавших осадков за период времени, мм. При наведении курсора мыши на число - период времени, за который выпало указанное количество осадков.
R24 - Количество осадков - Количество выпавших осадков за 24 часа, мм.
S - Снежный покров - Высота снежного покрова, см. При наведении курсора мыши на число - состояние снежного покрова и степень покрытия местности в баллах.